Flag for Germany Weather past 2 weeks in Erkelenz, North Rhine-Westphalia, Germany

Now
64 °F

Clear.


Feels Like: 64 °F
Forecast: 61 / 83 °F
Wind: 5 mph from Southeast

Location: Geilenkirchen Airport

Current Time: Jul 7, 2015 at 12:58:53 AM

Latest Report: Jul 6, 2015 at 11:50 PM


Visibility: 10 mi

Pressure: 30.07 "Hg

Humidity: 64%

Dew point: 52 °F

Location of ErkelenzLocation

Historic Weather in Erkelenz — Graph

°F

Erkelenz temperature yesterday

Maximum temperature yesterday: 79 °F (at 6:50 PM)
Minimum temperature yesterday: 59 °F (at 4:50 AM)
Average temperature yesterday: 69 °F

Past Weeks' High & Low Weather Summary

 TemperatureHumidityPressure
High102 °F (Jul 2, 4:50 PM)94% (Jun 22, 8:50 PM)30.27 "Hg (Jun 22, 8:50 PM)
Low50 °F (Jun 22, 8:50 PM)26% (Jul 2, 4:50 PM)29.71 "Hg (Jun 22, 7:50 PM)
Average68 °F63%30.09 "Hg
* Reported Jun 21 10:50 PM — Jul 6 10:50 PM, Erkelenz, Weather by CustomWeather, © 2015

Note: Actual official high and low records may vary slightly from our data, if they occured in-between our weather recording intervals... More about our weather records

Advertising

Erkelenz weather history for previous 24 hours

 ConditionsComfort  
Time TempWeatherWind HumidityBarometerVisibility
10:50 PM
Mon, Jul 6
66 °FSunny.2 mph60%30.07 "Hg10 mi
9:50 PM70 °FSunny.3 mph53%30.07 "Hg10 mi
8:50 PM77 °FSunny.3 mph39%30.07 "Hg10 mi
7:50 PM79 °FSunny.7 mph37%30.09 "Hg10 mi
6:50 PM79 °FSunny.9 mph37%30.09 "Hg10 mi
5:50 PM77 °FSunny.8 mph39%30.12 "Hg10 mi
4:50 PM77 °FSunny.9 mph39%30.15 "Hg10 mi
3:50 PM75 °FSunny.9 mph39%30.15 "Hg10 mi
2:50 PM75 °FSunny.14 mph41%30.15 "Hg10 mi
1:50 PM73 °FSunny.15 mph44%30.18 "Hg10 mi
12:50 PM73 °FPassing clouds.13 mph41%30.18 "HgN/A
11:50 AM72 °FPassing clouds.13 mph44%30.18 "HgN/A
10:50 AM70 °FSunny.14 mph50%30.21 "Hg10 mi
9:50 AM66 °FSunny.13 mph56%30.21 "Hg10 mi
8:50 AM64 °FSunny.12 mph60%30.18 "Hg10 mi
7:50 AM61 °FSunny.12 mph68%30.18 "Hg10 mi
6:50 AM59 °FSunny.7 mph77%30.18 "Hg10 mi
5:50 AM59 °FClear.8 mph77%30.18 "Hg10 mi
4:50 AM59 °FClear.8 mph82%30.15 "Hg10 mi
3:50 AM61 °FClear.9 mph77%30.15 "Hg10 mi
2:50 AM63 °FClear.13 mph73%30.15 "Hg10 mi
1:50 AM64 °FPassing clouds.8 mph83%30.12 "HgN/A
12:50 AM66 °FPassing clouds.7 mph78%30.09 "HgN/A
Weather by CustomWeather, © 2015

See weather overviewHow to use our weather pages